Weather History for CYYJ - November, 2011

Change the Weather History Date:

Wednesday, November 2, 2011

  Actual Average Record
Temperature  
Mean Temperature 40 °F -  
Max Temperature 47 °F 49 °F 59 °F (2008)
Min Temperature 32 °F 36 °F 28 °F (2002)
Degree Days  
Heating Degree Days 26    
Moisture  
Dew Point 38 °F    
Average Humidity 86    
Maximum Humidity 100    
Minimum Humidity 65    
Precipitation  
Precipitation 0.16 in 0.18 in - ()
Sea Level Pressure  
Sea Level Pressure 29.99 in    
Wind  
Wind Speed 5 mph ()    
Max Wind Speed 16 mph    
Max Gust Speed 22 mph    
Visibility 18.5 miles    
Events Fog , Rain    
Averages and records for this station are not official NWS values.
T = Trace of Precipitation, MM = Missing Value Source: Averaged Metar Reports

Daily Weather History Graph

Daily Weather History Graph

Search for Another Location

Airport or City:

Trip Planner

Search our weather history database for the weather conditions in past years. The results will help you decide how hot, cold, wet, or windy it might be!

Date:

Astronomy

Nov. 02, 2011 Rise Set
Actual Time 8:01 AM PDT 5:52 PM PDT
Civil Twilight 7:28 AM PDT 6:25 PM PDT
Nautical Twilight 6:51 AM PDT 7:02 PM PDT
Astronomical Twilight 6:14 AM PDT 7:39 PM PDT
Moon 2:22 PM PDT No Moon Set
Length of Visible Light 10h 56m
Length of Day
9h 50m
Waxing Crescent, 51% of the Moon is Illuminated
Nov 2
Waxing Crescent
Nov 10
Full
Nov 18
Last Quarter
Nov 24
New
Dec 2
First Quarter

Hourly Weather History & Observations

Time (PDT) Temp. Windchill Dew Point Humidity Pressure Visibility Wind Dir Wind Speed Gust Speed Precip Events Conditions
12:00 AM 39.2 °F 35.9 °F 35.6 °F 87% 30.35 in 20.0 mi WSW 4.6 mph - N/A   Mostly Cloudy
1:00 AM 39.2 °F 37.0 °F 35.6 °F 87% 30.32 in 20.0 mi SW 3.5 mph - N/A   Overcast
2:00 AM 37.4 °F - 33.8 °F 87% 30.29 in 20.0 mi Calm Calm - N/A   Mostly Cloudy
3:00 AM 37.4 °F 34.9 °F 35.6 °F 93% 30.25 in 20.0 mi WSW 3.5 mph - N/A   Mostly Cloudy
4:00 AM 33.8 °F 29.6 °F 33.8 °F 100% 30.22 in 15.0 mi West 4.6 mph - N/A Fog Shallow Fog
4:41 AM 33.8 °F 29.6 °F - N/A% - 15.0 mi WSW 4.6 mph - N/A Fog Shallow Fog
5:00 AM 34 °F - 32 °F 90% 30.17 in 15 mi WSW 4.6 mph - - Fog Patches of Fog
5:00 AM 33.8 °F 29.6 °F 32.0 °F 93% 30.17 in 15.0 mi WSW 4.6 mph - N/A Fog Shallow Fog
6:00 AM 35.6 °F 32.8 °F 33.8 °F 93% 30.14 in 15.0 mi WSW 3.5 mph - N/A   Mostly Cloudy
7:00 AM 35.6 °F 31.7 °F 33.8 °F 93% 30.09 in 20.0 mi West 4.6 mph - N/A   Mostly Cloudy
8:00 AM 33.8 °F 28.6 °F 33.8 °F 100% 30.04 in 20.0 mi West 5.8 mph - N/A   Mostly Cloudy
9:00 AM 37.4 °F 31.4 °F 35.6 °F 93% 30.01 in 20.0 mi West 8.1 mph - N/A   Mostly Cloudy
10:00 AM 41.0 °F 38.0 °F 39.2 °F 93% 29.97 in 20.0 mi West 4.6 mph - N/A   Mostly Cloudy
11:00 AM 42 °F - 38 °F 82% 29.92 in 19 mi West 6.9 mph - -   Scattered Clouds
12:00 PM 44.6 °F 39.7 °F 39.2 °F 81% 29.88 in 20.0 mi West 9.2 mph - N/A   Overcast
1:00 PM 46.4 °F 44.3 °F 37.4 °F 71% 29.83 in 20.0 mi WNW 4.6 mph - N/A   Overcast
2:00 PM 46.4 °F 39.8 °F 37.4 °F 71% 29.84 in 20.0 mi West 16.1 mph - N/A   Overcast
2:23 PM 46.4 °F 41.5 °F - N/A% - 20.0 mi NW 10.4 mph 18.4 mph N/A Rain Light Rain
3:00 PM 44.6 °F 43.1 °F 41.0 °F 87% 29.79 in 15.0 mi WNW 3.5 mph - N/A Rain Light Rain
4:00 PM 46.4 °F - 42.8 °F 87% 29.78 in 15.0 mi East 2.3 mph - N/A Rain Light Rain
5:00 PM 46 °F - 42 °F 83% 29.78 in 19 mi SSE 10.4 mph - - Rain Light Rain
5:00 PM 46.4 °F 41.1 °F 42.8 °F 87% 29.78 in 20.0 mi SSE 11.5 mph 17.3 mph N/A Rain Light Rain
5:24 PM 46.4 °F 40.7 °F - N/A% - 20.0 mi SSE 12.7 mph 21.9 mph N/A   Overcast
6:00 PM 46.4 °F 41.5 °F 42.8 °F 87% 29.80 in 20.0 mi SSE 10.4 mph - N/A   Mostly Cloudy
7:00 PM 46.4 °F 42.4 °F 42.8 °F 87% 29.79 in 20.0 mi SSE 8.1 mph - N/A   Overcast
9:00 PM 46.4 °F 41.1 °F 41.0 °F 81% 29.79 in 30.0 mi South 11.5 mph 17.3 mph N/A   Mostly Cloudy
10:00 PM 44.6 °F 43.1 °F 39.2 °F 81% 29.81 in 30.0 mi ESE 3.5 mph - N/A   Mostly Cloudy
11:00 PM 46 °F - 38 °F 65% 29.83 in 28 mi SSW 15.0 mph - -   Partly Cloudy
11:53 PM 46.4 °F 41.5 °F - N/A% - 30.0 mi SSW 10.4 mph - N/A Rain Light Rain Showers